Regional Weather Roundup
Issued by NWS

Home | Current Version | Previous Version | Text Only | Print | Product List | Glossary Off
Versions: 1 2 3 4 5 6 7 8 9 10 11 12 13 14 15 16 17 18 19 20 21 22 23 24 25 26 27 28 29 30 31 32 33 34 35 36 37 38 39 40 41 42 43 44 45 46 47 48 49 50

000
ASUS45 KBOI 012110
RWRID

IDAHO REGIONAL WEATHER ROUNDUP
NATIONAL WEATHER SERVICE BOISE ID
300 PM MDT MON JUN 01 2015

NOTE: "FAIR" INDICATES FEW OR NO CLOUDS BELOW 12000 FEET
WITH NO SIGNIFICANT WEATHER AND/OR OBSTRUCTIONS TO VISIBILITY

IDZ012-014-012200-
SOUTHWEST IDAHO


CITY           SKY/WX    TMP DP  RH WIND       PRES   REMARKS
BOISE          PTSUNNY   80  45  28 SE13      29.83F
CALDWELL       PTSUNNY   81  46  30 SE6       29.82F
MOUNTAIN HOME  PTSUNNY   78  49  35 SE9       29.84F
$$

IDZ016-017-012200-
SOUTHCENTRAL IDAHO


CITY           SKY/WX    TMP DP  RH WIND       PRES   REMARKS
BURLEY         PTSUNNY   69  45  41 NW23G37   29.92R
JEROME         LGT RAIN  64  46  52 NE7       29.91F
TWIN FALLS     CLOUDY    66  51  58 CALM      29.88F
$$

IDZ019>023-012200-
SOUTHEAST IDAHO


CITY           SKY/WX    TMP DP  RH WIND       PRES   REMARKS
IDAHO FALLS    PTSUNNY   79  52  38 SW15G21   29.86F
POCATELLO      MOSUNNY   77  52  41 W18       29.89F
REXBURG        MOSUNNY   80  48  32 SW13G21   29.86F
$$

IDZ006-010-011-018-031-032-012200-
CENTRAL IDAHO MOUNTAINS


CITY           SKY/WX    TMP DP  RH WIND       PRES   REMARKS
MCCALL         CLOUDY    64  49  57 S10       29.92F
HAILEY         LGT RAIN  55  50  82 W9        30.06S
STANLEY          N/A     49  43  80 S7G16     30.06F
SALMON         CLOUDY    61  48  63 SE10G18   29.96F
CHALLIS        CLOUDY    55  47  74 S14       30.06R
$$

IDZ002-004-006-007-026-012200-
NORTHERN IDAHO


CITY           SKY/WX    TMP DP  RH WIND       PRES   REMARKS
LEWISTON       CLOUDY    77  57  50 E10       29.75F
LOWELL           N/A     76  55  48 VRB3      29.77F
COEUR D`ALENE  CLOUDY    75  52  43 S9        29.79S
MULLAN PASS    CLOUDY    64  43  46 MISG      29.96F
$$


USA.gov is the U.S. government's official web portal to all federal, state and local government web resources and services.